Regional Weather Roundup
Issued by NWS

Home | Current Version | Previous Version | Text Only | Print | Product List | Glossary Off
Versions: 1 2 3 4 5 6 7 8 9 10 11 12 13 14 15 16 17 18 19 20 21 22 23 24 25 26 27 28 29 30 31 32 33 34 35 36 37 38 39 40 41 42 43 44 45 46 47 48 49 50

000
ASUS43 KLMK 281302
RWRKY
KENTUCKY REGIONAL WEATHER ROUNDUP
NATIONAL WEATHER SERVICE LOUISVILLE KY
800 AM EST SAT FEB 28 2015

NOTE "FAIR" INDICATES FEW OR NO CLOUDS BELOW 12,000 FEET
WITH NO SIGNIFICANT WEATHER AND/OR OBSTRUCTIONS TO VISIBILITY.

KYZ001>023-026-027-061>063-070>075-281400-
WESTERN AND SOUTH CENTRAL KENTUCKY

CITY           SKY/WX    TMP DP  RH WIND       PRES   REMARKS
PADUCAH        CLOUDY    21  10  62 NE8       30.63S WCI  11
HENDERSON      CLOUDY    21  10  63 E10       30.66S WCI  10
OWENSBORO      MOCLDY    21   8  57 E9        30.66S WCI  11
HOPKINSVILLE   MOCLDY    23  12  62 NE8       30.61R WCI  14
BOWLING GREEN  CLOUDY    23  10  57 NE10      30.63R WCI  12
GLASGOW        NOT AVBL
$$

KYZ024-025-028>034-038-045-046-053-281400-
NORTH CENTRAL KENTUCKY

CITY           SKY/WX    TMP DP  RH WIND       PRES   REMARKS
LOUISVILLE/SDF CLOUDY    19   5  54 E9        30.69R WCI   8
LOUISVILLE/LOU CLOUDY    18   4  54 E7        30.70R WCI   9
FORT KNOX      CLOUDY    18   6  58 NE8       30.64R WCI   8
$$

KYZ035>037-039>044-047>052-055>060-089>105-281400-
NORTHEAST KENTUCKY

CITY           SKY/WX    TMP DP  RH WIND       PRES   REMARKS
LEXINGTON      CLOUDY    17   5  59 E10       30.66R WCI   5
COVINGTON      CLOUDY    13   1  59 E8        30.70R WCI   2
FRANKFORT        N/A     17   4  56 E8        30.67R WCI   7
$$

KYZ054-064>069-076>088-106>120-281400-
SOUTHEAST KENTUCKY

CITY           SKY/WX    TMP DP  RH WIND       PRES   REMARKS
JACKSON        CLEAR     17   6  62 VRB6      30.60S WCI   9
LONDON         CLEAR     22   8  55 VRB5      30.59S WCI  16
SOMERSET       NOT AVBL
MIDDLESBORO    CLEAR     19  14  78 CALM      30.60R
MONTICELLO     PTSUNNY   22  12  65 NE6       30.64R WCI  15
$$




USA.gov is the U.S. government's official web portal to all federal, state and local government web resources and services.